Location: Crab Orchard
(37.7292°N, 88.8042°W)
Time: 23:22:29
(UTC+00:00)

Cosmos 2237 Rocket - Pass Details

Date: 08 December 2019
Orbit: 836 x 849 km, 71.0° (Epoch: 26 January)

Event Time Altitude Azimuth Distance (km) Brightness Sun altitude
Rises 23:01:25 0° 186° (S) 3,395 5.8 -5.3°
Reaches altitude 10° 23:03:55 10° 181° (S) 2,464 5.0 -5.7°
Maximum altitude 23:09:23 51° 107° (ESE) 1,052 2.5 -6.7°
Drops below altitude 10° 23:14:52 10° 33° (NNE) 2,477 4.1 -7.7°
Enters shadow 23:16:49 - 29° (NNE) 3,205 4.7 -8.1°
